This is the latest recevied weather packets stored in our database for station/object K0QJ. If no packets are shown the sender has not sent any weather packets the latest 10 day(s).
| Time | Temp. | Humidity | Pressure | Rain* | Wind** | Luminosity | Snow |
|---|---|---|---|---|---|---|---|
| 1777474665 | 11.67° C | 73% | 1020 hPa | 0 mm | - | 572 W/m² | - |
| 1777474362 | 11.11° C | 73% | 1019.9 hPa | 0 mm | - | 530 W/m² | - |
| 1777474058 | 11.11° C | 74% | 1019.9 hPa | 0 mm | - | 521 W/m² | - |
| 1777473756 | 10.56° C | 75% | 1020 hPa | 0 mm | - | 501 W/m² | - |
| 1777473453 | 10.56° C | 75% | 1019.8 hPa | 0 mm | - | 124 W/m² | - |
| 1777473148 | 10.56° C | 76% | 1020 hPa | 0 mm | - | 185 W/m² | - |
| 1777472846 | 10.56° C | 76% | 1019.9 hPa | 0 mm | - | 119 W/m² | - |
| 1777472541 | 10° C | 77% | 1019.9 hPa | 0 mm | - | 62 W/m² | - |
| 1777472238 | 10° C | 77% | 1020 hPa | 0 mm | - | 58 W/m² | - |
| 1777471935 | 10° C | 77% | 1020 hPa | 0 mm | - | 58 W/m² | - |
| 1777471632 | 10° C | 77% | 1020 hPa | 0 mm | - | 65 W/m² | - |
| 1777471328 | 10° C | 78% | 1019.9 hPa | 0 mm | - | 52 W/m² | - |
| 1777471024 | 10° C | 79% | 1020.3 hPa | 0 mm | - | 54 W/m² | - |
| 1777470721 | 9.44° C | 79% | 1020.1 hPa | 0 mm | - | 52 W/m² | - |
| 1777470418 | 9.44° C | 80% | 1020 hPa | 0 mm | - | 157 W/m² | - |
| 1777470114 | 9.44° C | 81% | 1020 hPa | 0 mm | - | 87 W/m² | - |
| 1777469810 | 8.89° C | 82% | 1019.9 hPa | 0 mm | - | 64 W/m² | - |
| 1777469506 | 8.89° C | 82% | 1020.1 hPa | 0 mm | - | 50 W/m² | - |
| 1777469201 | 8.89° C | 83% | 1019.9 hPa | 0 mm | - | 41 W/m² | - |
| 1777468895 | 8.89° C | 83% | 1019.9 hPa | 0 mm | - | 42 W/m² | - |
| 1777468592 | 8.89° C | 83% | 1020 hPa | 0 mm | - | 48 W/m² | - |
| 1777468289 | 8.33° C | 84% | 1020 hPa | 0 mm | - | 56 W/m² | - |
| 1777467985 | 8.33° C | 84% | 1019.8 hPa | 0 mm | - | 44 W/m² | - |
| 1777467681 | 8.33° C | 85% | 1020 hPa | 0 mm | - | 41 W/m² | - |
| 1777467376 | 8.33° C | 85% | 1019.8 hPa | 0 mm | - | 42 W/m² | - |
* Rain latest hour (hover to see other rain measurements)
** Current wind speed in m/s (hover to see current wind gust speed)